Weather in Maydan

Russia / Mari El Republic     56°16′43″N   46°13′33″E
temp.,
°C
wind,
m/s
gust,
m/s
humid.,
%
clouds,
%
prec.,
mm/h
press.,
hPa
HPBL,
m
25 february, thu
thu2500:00−22ssw3594100 0.0 1034103
03:00−21s3894100 0.0 1032206
06:00−19s51089100 0.0 1028323
09:00−18s51196100 0.7 1025387
12:00−15s61294100 0.9 1021530
15:00−14s61194100 2.1 1018611
18:00−13s4995100 0.9 1016503
21:00−13sse379499 1.3 1015259
26 february, fri
fri2600:00−14se259697 0.1 1013135
03:00−13se359695 0.3 1014140
06:00−14se239698 0.1 101275
09:00−11se249596 0.2 1011164
12:00−7se4694100 0.1 1008256
15:00−5se5996100 0.8 1005291
18:00−4se61096100 3.9 999252
21:00+2sw411100100 8.0 995360
27 february, sat
sat2700:00+1w61399100 1.5 993596
03:000w61298100 1.8 993683
06:000w51098100 0.7 992649
09:000w51098100 1.6 993676
12:00−5nne4796100 0.8 995311
15:00−8n5892100 1.1 998544
18:00−11n5994100 0.4 1000609
21:00−13n41093100 0.5 1004422
28 february, sun
sun2800:00−16nnw499682 0.0 1005252
03:00−18nnw499678 0.0 1007218
06:00−20nnw389767 0.0 1009202
09:00−18nnw489465 0.0 1010283
12:00−13nnw479185 0.0 1012494
15:00−11nnw488992 0.1 1013675
18:00−13nnw3995100 0.1 1015325
21:00−15n3896100 0.1 1018261
1 march, mon
mon100:00−19nnw239960 0.0 101935
03:00−21nnw239938 0.0 102130
06:00−22nnw22990 0.0 102322
09:00−18nnw24967 0.0 1024168
12:00−12nw238770 0.0 1025374
15:00−9w248985 0.0 1024455
18:00−12sw3697100 0.0 1022134
21:00−11sw4996100 0.1 1020239